Regional Weather Roundup
Issued by NWS

Home | Current Version | Previous Version | Graphics & Text | Print | Product List | Glossary On
Versions: 1 2 3 4 5 6 7 8 9 10 11 12 13 14 15 16 17 18 19 20 21 22 23 24 25 26 27 28 29 30 31 32 33 34 35 36 37 38 39 40 41 42 43 44 45 46 47 48 49 50
571
ASUS44 KJAN 191510
RWRMS

MISSISSIPPI HOURLY WEATHER ROUNDUP
NATIONAL WEATHER SERVICE JACKSON MS
900 AM CST FRI DEC 19 2014

NOTE: "FAIR: INDICATES FEW OR NO CLOUDS BELOW 12,000 FEET WITH NO
SIGNIFICANT WEATHER AND/OR OBSTRUCTIONS TO VISIBILITY.

MSZ001>002-007>008-010>013-018>021-025>028-034>036-191600-
NORTHWEST MISSISSIPPI

CITY           SKY/WX    TMP DP  RH WIND       PRES   REMARKS
CLARKSDALE     CLOUDY    45  41  87 NE9       30.27R
CLEVELAND      FAIR      44  42  93 NE8       30.23F
GREENWOOD      CLOUDY    47  39  74 NE7       30.23R
GREENVILLE     CLOUDY    45  41  86 NE12      30.23R FOG
GRENADA        CLOUDY    45  37  76 CALM      30.25R
OLIVE BRANCH   CLOUDY    37  37 100 NE7       30.26S WCI  32
OXFORD         CLOUDY    41  36  81 NE6       30.27R
TUNICA         CLOUDY    43  37  81 NE6       30.28R
$$

MSZ003>006-009-014>017-022>024-029>033-037>039-191600-
NORTHEAST MISSISSIPPI

CITY           SKY/WX    TMP DP  RH WIND       PRES   REMARKS
COLUMBUS AFB   CLOUDY    45  39  81 N2        30.24R
CORINTH        CLOUDY    41  34  75 N6        30.26R
GOLDN TRIANGLE CLOUDY    45  37  76 CALM      30.23R
STARKVILLE     CLOUDY    45  37  76 E5        30.23R
TUPELO         CLOUDY    44  37  76 NE10      30.25R
$$

MSZ040-058-191600-
CENTRAL MISSISSIPPI

CITY           SKY/WX    TMP DP  RH WIND       PRES   REMARKS
JACKSON INTL   CLOUDY    49  36  61 E6        30.19S
JACKSON HAWKNS CLOUDY    49  35  58 E9        30.18F
MERIDIAN KEY   CLOUDY    48  33  56 NE3       30.23R
MERIDIAN NAS   CLOUDY    45  36  70 CALM      30.25R
RAYMOND        CLOUDY    48  45  87 E7        30.19R
VICKSBURG      CLOUDY    50  40  68 E6        30.20R
$$

MSZ059>079-191600-
SOUTH MISSISSIPPI

CITY           SKY/WX    TMP DP  RH WIND       PRES   REMARKS
HATTIESBURG    RAIN      47  45  93 NE5       30.23S FOG
MCCOMB         CLOUDY    47  44  90 E7        30.16F
NATCHEZ        CLOUDY    48  46  93 E7        30.17R
PINE BELT      CLOUDY    46  41  81 NE7       30.22F
$$

MSZ080>082-191600-
COASTAL MISSISSIPPI

CITY           SKY/WX    TMP DP  RH WIND       PRES   REMARKS
BAY ST LOUIS   RAIN      48  45  87 N12       30.21R
BILOXI         HVY RAIN  46  46 100 NE12      30.19F FOG
PASCAGOULA     RAIN      47  46  97 NE8       30.21S FOG
GULFPORT       HVY RAIN  47  45  93 NE7       30.21R
$$



USA.gov is the U.S. government's official web portal to all federal, state and local government web resources and services.